Temp
72 72 71 72 71 71 69 69 67 63 63 69 71 75 75 76 77 77 76 76 75 73 71 71 71 71 72 72 72 72 72 72 72 72 72 72 73 74
75 72 72 73 72 72 71 69 68 67 65 68 71 73 76 78 78 77 76 74 74 73 72 71 71 71 71 71 70 70 70 70 71 71 70 70 70 72
74 71 73 73 74 72 72 71 69 68 66 71 69 72 72 74 76 75 75 75 75 73 72 72 70 69 69 69 69 69 70 70 70 70 69 69 70 71
75 72 73 76 72 74 74 73 70 69 69 70 70 69 71 73 73 72 75 78 74 76 72 71 70 68 66 66 66 67 66 66 68 68 66 67 69 70
77 76 75 73 72 74 72 72 74 70 69 69 73 69 70 70 71 71 71 72 76 76 74 72 70 68 66 65 64 63 61 61 63 63 65 65 67 69
77 76 77 75 74 75 72 73 72 70 70 69 71 70 68 70 69 68 68 69 70 76 74 70 70 69 67 65 64 62 59 59 60 59 61 62 62 65
77 77 76 77 75 76 76 73 72 71 70 69 69 66 68 67 66 68 67 68 69 68 68 68 68 68 69 67 67 65 61 60 60 59 58 58 59 61
76 76 77 74 73 71 69 71 73 72 70 69 69 68 72 67 67 67 67 66 65 67 66 67 68 68 68 69 67 64 61 60 60 59 58 58 59 59
73 73 73 77 73 72 68 67 67 67 70 73 70 71 70 71 68 67 67 66 65 67 67 65 67 67 67 67 63 62 60 59 60 60 59 58 58 57
71 72 72 74 73 70 71 71 71 71 70 70 71 76 73 73 68 68 68 66 65 66 67 66 66 67 67 65 62 61 59 59 59 59 58 57 56 55
69 70 71 72 68 62 68 70 70 71 68 65 66 66 65 63 65 67 66 64 63 64 66 65 65 64 68 66 63 61 58 58 58 58 58 59 55 54
67 68 66 68 61 60 66 67 67 70 70 70 68 65 64 66 63 69 68 65 63 63 65 65 63 64 62 66 64 63 62 57 56 57 58 56 53 61
67 67 70 61 58 57 58 67 68 71 69 69 70 70 70 69 68 66 69 68 65 64 66 66 63 63 64 63 65 63 63 61 61 58 53 54 53 59
66 68 69 59 56 56 57 59 58 60 68 69 69 69 69 69 69 68 67 68 69 69 67 66 64 64 63 64 65 64 63 62 62 61 61 54 52 54
67 66 60 55 52 54 55 56 57 64 66 66 66 67 69 70 69 67 68 68 68 67 67 67 66 66 65 62 63 65 65 63 63 62 61 60 59 58
61 61 60 59 58 60 60 59 62 65 66 66 66 66 66 66 65 67 67 67 67 66 67 68 67 65 63 64 63 62 64 61 63 62 62 61 61 61
62 64 63 63 63 63 64 64 64 65 64 65 64 65 65 65 65 66 66 65 64 65 66 66 66 65 63 64 62 63 63 62 62 62 62 61 61 61
62 62 62 62 61 62 62 62 64 63 63 63 63 63 62 62 62 63 64 64 64 65 64 64 63 62 61 59 59 61 58 58 56 57 58 59 60 57
61 61 62 62 63 63 63 62 60 60 60 60 60 60 60 60 59 59 60 58 57 59 61 63 61 59 57 56 57 52 58 56 55 54 55 54 54 52
61 61 59 59 61 61 60 60 60 59 58 58 59 59 59 58 57 56 57 57 56 56 59 60 60 59 58 57 57 55 50 57 56 55 54 53 52 56
58 58 58 60 60 61 61 59 60 60 59 58 58 58 58 58 57 57 57 53 54 56 56 57 60 59 58 59 57 56 52 52 54 55 52 52 51 51
61 61 61 61 61 60 60 60 59 58 59 58 57 56 56 58 57 56 58 57 57 58 59 59 59 59 58 58 57 56 52 50 52 53 54 54 53 52
59 61 60 60 59 59 59 59 58 58 58 57 56 58 58 57 57 58 57 58 57 58 57 56 55 56 55 56 55 54 52 52 51 50 50 53 53 53
MSLP
1017.19 1017.31 1017.48 1017.39 1017.51 1017.54 1017.65 1017.70 1017.87 1017.95 1017.21 1016.09 1015.65 1014.71 1014.48 1014.34 1013.96 1013.79 1013.59 1013.25 1013.08 1012.93 1012.67 1012.35 1012.03 1011.82 1011.63 1011.37 1011.18 1011.13 1011.45 1011.58 1011.73 1011.96 1012.17 1012.20 1012.13 1011.98
1016.62 1016.78 1016.81 1016.87 1016.96 1017.00 1017.05 1017.10 1017.26 1017.29 1016.99 1016.04 1015.40 1014.83 1014.27 1013.93 1013.62 1013.43 1013.24 1013.03 1012.74 1012.48 1012.27 1011.99 1011.65 1011.30 1010.93 1010.72 1010.72 1010.81 1011.05 1011.27 1011.35 1011.49 1011.60 1011.81 1011.87 1011.65
1015.76 1016.00 1016.09 1016.26 1016.45 1016.46 1016.46 1016.47 1016.64 1016.76 1016.64 1015.53 1015.16 1014.54 1014.27 1013.90 1013.43 1013.17 1012.95 1012.70 1012.41 1012.12 1011.90 1011.61 1011.34 1011.16 1010.80 1010.30 1010.28 1010.56 1010.86 1011.04 1011.06 1011.15 1011.15 1011.30 1011.37 1011.33
1014.74 1015.17 1015.26 1015.49 1015.71 1015.83 1015.91 1015.88 1015.87 1015.77 1015.90 1015.37 1014.87 1014.52 1014.19 1013.73 1013.42 1013.19 1012.74 1012.28 1012.19 1011.95 1011.69 1011.47 1011.11 1010.87 1010.66 1010.27 1010.11 1010.42 1010.77 1011.02 1011.01 1011.02 1010.87 1010.75 1010.83 1010.92
1013.50 1013.82 1014.05 1014.52 1014.74 1014.83 1015.00 1015.10 1014.99 1015.00 1015.13 1014.94 1014.46 1014.16 1013.76 1013.60 1013.30 1012.98 1012.76 1012.36 1011.99 1011.71 1011.36 1011.19 1010.89 1010.60 1010.48 1010.31 1010.24 1010.35 1010.71 1011.00 1011.13 1010.93 1010.81 1010.67 1010.60 1010.64
1012.63 1012.75 1012.83 1013.19 1013.43 1013.78 1014.14 1014.19 1014.29 1014.50 1014.51 1014.52 1014.25 1014.08 1013.70 1013.22 1013.18 1013.13 1012.72 1012.32 1011.93 1011.45 1011.11 1010.97 1010.67 1010.29 1010.16 1010.20 1010.21 1010.32 1010.52 1010.72 1010.95 1011.03 1010.83 1010.79 1010.74 1010.86
1011.62 1011.82 1011.98 1012.04 1012.14 1012.41 1012.92 1013.19 1013.53 1013.73 1013.86 1013.95 1013.95 1013.79 1013.42 1013.25 1013.21 1012.69 1012.60 1012.25 1011.78 1011.57 1011.30 1011.04 1010.64 1010.15 1009.94 1009.98 1010.03 1010.08 1010.25 1010.54 1010.74 1010.89 1010.90 1010.95 1010.88 1011.09
1010.26 1010.44 1010.68 1011.05 1011.34 1011.53 1011.76 1012.05 1012.39 1012.66 1012.92 1013.10 1012.86 1012.87 1012.31 1012.35 1012.18 1012.38 1012.24 1012.30 1012.09 1011.39 1011.45 1010.97 1010.57 1010.39 1010.13 1009.84 1009.67 1009.65 1010.03 1010.36 1010.68 1010.91 1011.11 1011.35 1011.25 1011.37
1010.02 1010.14 1010.17 1010.13 1010.33 1010.69 1010.85 1011.07 1011.25 1011.40 1011.34 1011.50 1011.60 1011.44 1011.46 1011.30 1011.49 1011.67 1011.67 1011.68 1011.69 1011.15 1011.33 1011.11 1010.68 1010.57 1010.06 1009.91 1009.39 1009.54 1009.89 1010.34 1010.55 1010.70 1011.09 1011.46 1011.65 1011.79
1010.54 1010.69 1009.96 1009.77 1009.90 1010.18 1010.11 1010.10 1010.28 1010.22 1010.23 1010.53 1010.52 1009.92 1010.08 1010.16 1010.50 1010.68 1010.77 1010.92 1010.93 1010.79 1011.02 1011.33 1010.62 1010.43 1010.28 1010.26 1009.89 1009.83 1010.19 1010.48 1010.62 1010.66 1010.98 1011.48 1011.75 1012.06
1008.40 1008.88 1009.51 1009.25 1009.10 1009.28 1009.59 1009.53 1009.69 1009.34 1008.97 1009.02 1008.89 1008.73 1008.98 1009.32 1009.84 1010.45 1010.56 1010.81 1010.65 1010.46 1010.53 1010.79 1010.44 1010.34 1010.25 1010.45 1010.35 1010.07 1010.05 1010.36 1010.58 1010.65 1010.80 1011.23 1011.70 1012.15
1007.02 1007.30 1006.98 1007.51 1008.28 1008.48 1008.60 1008.86 1008.99 1008.17 1008.60 1008.46 1008.30 1008.15 1008.33 1008.56 1008.91 1009.40 1009.73 1009.97 1010.21 1009.99 1009.66 1010.30 1010.22 1010.09 1010.27 1010.28 1010.41 1010.20 1010.26 1010.52 1010.54 1010.54 1010.98 1011.28 1011.62 1012.03
1005.91 1005.83 1006.52 1007.00 1007.15 1007.20 1007.00 1008.21 1008.03 1007.56 1007.32 1007.82 1007.81 1007.39 1007.15 1007.49 1007.73 1007.90 1008.58 1008.68 1009.04 1009.03 1008.82 1009.22 1009.71 1009.77 1009.99 1010.18 1010.04 1010.17 1010.30 1010.70 1010.54 1010.78 1011.04 1011.32 1011.65 1011.91
1004.73 1005.44 1005.85 1006.18 1005.83 1006.23 1006.82 1006.89 1007.23 1007.28 1007.31 1006.87 1006.83 1006.40 1006.36 1006.58 1006.47 1006.84 1007.45 1007.46 1007.44 1007.65 1008.03 1008.51 1009.05 1009.12 1009.49 1009.71 1009.78 1009.98 1010.31 1010.52 1010.55 1010.80 1010.99 1011.58 1011.85 1012.06
1004.63 1004.72 1005.30 1005.66 1006.18 1006.47 1006.51 1006.43 1006.77 1007.17 1006.52 1006.35 1006.02 1005.29 1005.42 1005.42 1005.75 1005.82 1006.17 1006.83 1006.84 1006.97 1007.68 1007.98 1008.31 1008.60 1009.10 1009.47 1009.66 1009.65 1009.97 1010.41 1010.66 1010.67 1011.08 1011.43 1011.78 1012.05
1004.75 1004.90 1004.93 1005.55 1005.85 1005.89 1006.13 1006.42 1006.52 1006.26 1006.14 1005.86 1005.39 1005.20 1004.86 1004.96 1004.92 1005.09 1005.67 1006.32 1006.44 1006.74 1007.22 1007.26 1007.74 1008.28 1009.14 1009.51 1009.59 1009.69 1009.73 1010.06 1010.44 1010.73 1010.93 1011.25 1011.34 1011.49
1004.47 1004.87 1005.23 1005.46 1005.67 1005.80 1005.93 1005.81 1005.85 1005.98 1005.94 1005.73 1005.39 1005.25 1005.07 1004.70 1004.95 1005.13 1005.53 1006.02 1005.87 1006.24 1006.68 1007.22 1007.58 1008.19 1008.89 1009.23 1009.48 1009.58 1009.79 1010.06 1010.30 1010.54 1010.87 1011.08 1011.09 1011.06
1004.35 1004.78 1005.19 1005.34 1005.51 1005.75 1005.79 1005.78 1005.89 1005.84 1005.75 1005.63 1005.47 1005.51 1005.50 1005.19 1005.22 1005.46 1005.64 1005.70 1005.86 1005.92 1006.13 1006.80 1007.51 1008.22 1009.02 1009.62 1009.83 1009.92 1010.00 1010.43 1010.72 1010.65 1010.84 1011.13 1011.50 1011.77
1004.51 1004.87 1005.11 1005.36 1005.31 1005.38 1005.29 1005.53 1006.09 1005.93 1005.89 1005.96 1006.00 1005.96 1005.74 1005.83 1005.83 1005.85 1005.99 1006.16 1006.72 1005.92 1005.81 1006.25 1006.95 1007.82 1008.82 1009.25 1009.86 1010.38 1010.44 1010.60 1010.76 1011.06 1011.01 1011.40 1011.75 1012.12
1004.64 1004.81 1005.08 1005.36 1005.40 1005.49 1005.65 1005.99 1006.35 1006.46 1006.39 1006.48 1006.55 1006.46 1006.21 1006.26 1006.67 1006.55 1006.40 1006.65 1006.90 1007.03 1007.03 1006.78 1007.10 1007.91 1008.83 1009.52 1009.88 1010.43 1010.57 1010.62 1010.73 1011.13 1011.21 1011.33 1011.75 1011.69
1004.92 1005.13 1005.45 1005.43 1005.60 1005.76 1006.09 1006.39 1006.45 1006.61 1006.62 1006.77 1006.79 1006.99 1006.97 1007.00 1007.13 1007.23 1007.21 1007.19 1007.38 1007.86 1008.26 1008.32 1007.74 1007.93 1008.78 1009.31 1009.85 1010.25 1010.78 1010.76 1010.67 1010.54 1011.14 1011.44 1011.71 1011.91
1005.14 1005.26 1005.54 1005.64 1005.82 1005.98 1006.19 1006.18 1006.39 1006.50 1006.56 1006.57 1006.85 1007.46 1007.33 1007.43 1007.49 1007.45 1007.43 1007.61 1007.66 1007.75 1007.96 1007.97 1007.97 1008.50 1008.85 1009.15 1009.36 1009.88 1010.37 1010.71 1010.71 1010.89 1011.04 1011.22 1011.52 1011.73
1005.97 1005.65 1005.44 1005.71 1005.83 1005.96 1006.10 1006.34 1006.41 1006.43 1006.53 1006.69 1007.03 1007.13 1006.99 1007.30 1007.25 1007.39 1007.10 1007.32 1007.56 1007.84 1007.92 1008.09 1008.24 1008.50 1008.68 1008.91 1009.26 1009.84 1010.42 1010.75 1010.95 1011.26 1011.40 1011.38 1011.35 1011.47
Wind_Speed
7 6 5 4 4 4 4 4 4 3 4 4 3 3 3 4 6 5 5 8 9 8 9 8 8 8 9 10 10 11 9 9 8 6 6 7 9 9
7 7 6 5 5 4 5 4 4 4 5 4 4 4 4 4 6 5 6 8 8 7 7 8 9 10 11 9 10 10 10 9 8 7 6 5 9 10
9 7 10 7 6 4 4 4 5 4 5 5 4 3 3 6 6 4 5 5 4 8 8 11 10 11 11 8 8 9 9 8 7 7 6 7 10 10
12 8 11 7 8 8 6 8 6 5 5 11 3 3 5 4 5 5 4 4 4 7 10 9 10 9 10 9 5 7 7 7 7 6 5 7 8 8
14 12 12 9 10 9 8 8 8 5 6 5 8 3 4 2 4 3 4 4 3 8 9 7 9 10 8 5 6 6 6 6 6 5 4 4 5 6
13 13 13 12 13 11 8 10 8 6 5 6 7 5 4 4 3 3 4 2 4 3 4 6 9 9 5 5 6 7 7 7 6 5 2 3 2 5
13 13 13 15 17 15 9 10 9 8 6 7 7 2 4 3 5 3 4 3 3 3 3 3 4 4 3 6 6 9 8 7 7 6 2 3 5 7
15 14 13 14 16 17 17 18 14 11 10 7 7 8 13 5 3 4 3 1 4 2 1 4 1 3 3 3 6 11 10 9 7 5 3 3 6 8
11 11 9 10 13 10 13 17 15 16 18 12 11 11 10 7 3 4 5 4 4 3 1 3 1 3 3 4 7 6 9 8 8 7 6 3 5 7
7 10 10 11 9 9 10 10 11 11 13 12 14 15 11 10 7 5 5 4 2 3 3 3 2 1 2 2 7 8 7 5 6 7 7 6 6 7
8 11 12 13 10 10 8 8 10 12 9 15 15 12 10 7 7 4 5 3 3 4 4 3 2 2 1 0 1 5 7 7 6 6 8 10 8 7
12 19 17 15 14 13 7 6 9 13 6 8 6 11 13 13 13 11 5 6 4 1 5 4 3 2 1 1 2 1 2 4 6 7 7 7 9 4
10 6 7 17 17 15 14 10 16 14 9 9 9 8 7 8 8 9 11 9 6 5 5 5 3 2 2 2 2 2 2 2 2 3 5 8 10 6
7 8 7 12 12 15 14 18 15 9 8 9 9 9 9 10 7 7 9 10 8 7 5 5 3 4 3 2 2 2 2 2 2 2 3 4 3 2
6 6 5 5 7 10 16 18 12 9 8 10 10 12 11 11 6 5 5 7 5 5 4 5 4 4 3 2 2 3 3 3 2 2 3 4 3 3
2 3 4 3 3 3 2 3 4 3 4 7 5 3 1 3 3 4 5 6 5 4 6 6 5 5 3 1 1 1 2 3 2 3 3 3 3 4
4 2 2 2 2 2 2 2 3 3 3 3 2 2 3 1 1 2 3 3 3 5 5 4 6 6 3 3 2 0 3 2 2 2 3 2 3 4
2 2 3 3 4 3 4 3 2 1 1 2 1 0 0 1 2 2 1 3 5 6 5 4 6 4 2 3 6 2 2 3 1 2 2 1 1 4
3 2 2 2 2 3 1 2 1 2 2 3 3 2 4 5 4 3 6 8 7 3 3 5 5 4 3 3 1 11 2 1 2 1 2 3 1 1
1 2 3 3 3 4 4 3 2 2 2 3 3 3 4 4 3 5 5 6 6 5 7 4 5 4 3 2 2 2 8 2 2 2 1 2 1 1
3 3 2 3 2 3 3 3 3 2 2 3 2 2 1 2 2 3 3 4 4 3 2 1 3 9 4 4 2 2 1 5 2 3 3 2 1 1
2 4 3 3 3 3 2 3 2 2 2 2 2 4 3 3 3 3 3 3 3 3 3 2 3 4 4 5 4 4 3 1 6 8 7 3 3 3
6 5 4 3 3 3 2 1 2 2 2 2 2 2 3 2 2 3 3 5 4 4 4 3 3 2 1 2 4 2 3 2 3 2 1 4 5 4
Wind_Direction
234 234 222 235 219 225 218 188 182 272 276 285 274 290 276 284 280 296 296 289 288 280 292 292 294 282 287 277 238 216 214 214 235 247 256 263 264 257
235 233 239 245 240 224 216 212 204 209 264 215 251 254 277 285 280 306 296 292 285 309 314 318 318 320 316 301 224 205 200 213 228 246 256 264 263 242
232 222 239 234 249 248 233 220 219 186 237 273 242 260 268 269 284 294 289 293 304 320 319 326 327 325 321 298 229 197 198 213 226 243 255 269 257 237
234 225 236 232 236 245 250 253 237 224 214 264 262 260 239 254 264 289 283 289 310 300 307 316 319 323 322 298 205 192 198 218 225 241 275 277 246 232
230 226 231 218 235 240 240 246 249 242 230 239 270 244 255 248 283 265 267 287 277 283 292 312 308 312 324 302 199 177 195 218 245 238 282 287 248 193
231 230 229 221 230 234 230 239 242 242 241 251 261 264 253 253 240 258 294 263 292 277 284 268 289 288 284 229 183 171 193 207 223 239 236 269 223 189
227 231 232 231 228 225 228 241 234 242 248 248 258 254 257 259 229 224 242 263 277 248 287 286 290 312 319 245 232 203 185 197 207 206 198 198 147 134
224 227 230 226 231 232 232 233 225 229 244 230 244 241 261 231 206 229 215 284 308 239 307 296 245 322 334 318 245 196 181 186 186 194 189 201 135 127
233 239 236 234 228 228 230 234 236 229 231 230 237 240 251 234 200 223 218 198 220 261 91 283 293 304 337 336 332 151 146 172 173 171 174 183 166 150
311 288 251 254 250 234 232 231 236 237 233 231 238 250 234 244 200 219 207 209 264 254 161 255 269 267 344 14 54 101 130 167 181 171 165 177 175 173
238 276 269 275 243 210 213 230 248 252 237 234 238 243 246 241 218 151 224 198 243 229 186 194 252 268 227 292 63 117 142 160 181 177 175 185 179 165
215 235 235 232 189 194 198 216 249 253 263 253 229 241 238 244 206 220 214 209 196 251 209 176 203 159 314 216 189 141 121 162 167 167 184 173 151 145
222 228 239 201 193 202 190 222 246 269 243 238 250 248 239 224 211 202 222 205 202 217 191 159 181 161 177 226 189 163 155 159 159 136 158 172 174 178
230 225 215 214 219 226 224 237 248 248 247 248 249 252 246 242 222 189 204 211 217 225 180 162 186 172 169 212 178 136 163 170 147 140 133 121 161 173
221 245 226 214 232 243 247 249 251 240 245 252 256 259 250 243 206 187 174 209 201 166 197 184 166 153 153 195 187 165 150 164 175 127 140 165 167 169
208 164 141 164 196 168 160 201 220 237 250 248 254 281 223 203 198 162 194 194 185 168 202 175 165 122 126 190 245 182 99 128 145 171 164 176 180 192
155 133 146 172 197 211 222 223 235 237 242 257 278 261 259 260 287 177 189 214 179 163 158 147 133 116 92 135 185 144 122 98 91 123 153 203 211 199
120 145 186 202 203 217 232 234 248 147 0 328 65 34 222 103 90 35 38 221 190 173 146 143 143 117 98 70 37 119 87 120 73 56 53 95 77 27
151 176 201 227 242 235 207 93 66 86 82 67 29 12 69 59 56 80 89 71 7 347 118 129 134 108 123 146 90 33 124 109 101 62 77 62 99 82
119 146 121 123 97 92 102 93 112 100 95 89 72 65 71 89 72 47 67 86 97 50 21 41 94 92 93 138 137 105 19 115 111 145 95 84 119 46
102 99 134 135 121 114 130 141 171 166 153 139 117 345 20 82 113 103 91 99 98 88 83 210 189 153 134 114 133 151 131 31 40 138 156 119 134 108
127 159 171 146 115 112 130 132 124 136 138 148 182 219 213 200 216 202 178 189 205 187 194 154 113 135 162 182 179 171 144 93 42 59 49 59 167 178
351 35 70 82 87 94 101 126 141 130 153 174 196 213 171 200 229 230 191 186 193 188 177 153 140 133 119 129 138 127 116 125 152 179 151 50 53 53